GW4386 Weather Reports


Display with metric or nautical units.
time (UTC)temp
F
wind
direction
speed
MPH
gust
MPH
rain 1hr
in
rain 24hr
in
rain mn
in
humidity
%
barometer
mb
20260504050559 58 183 1.0 7.0 0.00 0.00 0.00 64 1012.2
20260504045559 57 204 2.0 5.0 0.00 0.00 0.00 65 1012.0
20260504045100 57 183 1.0 4.0 0.00 0.00 0.00 66 1012.0
20260504044600 56 191 1.0 5.0 0.00 0.00 0.00 67 1012.0
20260504044500 56 209 1.0 5.0 0.00 0.00 0.00 67 1012.0
20260504044059 55 207 1.0 5.0 0.00 0.00 0.00 68 1012.0
20260504043601 55 211 1.0 3.0 0.00 0.00 0.00 70 1012.0
20260504043105 54 181 0.0 2.0 0.00 0.00 0.00 71 1011.9
20260504042559 53 184 0.0 1.0 0.00 0.00 0.00 74 1011.8
20260504042100 52 176 0.0 0.0 0.00 0.00 0.00 77 1011.8
20260504041600 52 171 0.0 0.0 0.00 0.00 0.00 77 1011.9
20260504041100 53 137 0.0 1.0 0.00 0.00 0.00 74 1011.8
20260504040600 53 145 0.0 3.0 0.00 0.00 0.00 69 1011.9
20260504040132 53 163 0.0 3.0 0.00 0.00 0.00 69 1011.8
20260504035558 53 190 0.0 3.0 0.00 0.00 0.00 69 1011.8
20260504035102 53 182 0.0 3.0 0.00 0.00 0.00 68 1011.7
20260504034603 54 192 0.0 3.0 0.00 0.00 0.00 68 1011.7
20260504034059 54 192 1.0 3.0 0.00 0.00 0.00 67 1011.8
20260504033603 54 201 1.0 4.0 0.00 0.00 0.00 66 1011.7
20260504033059 54 191 2.0 4.0 0.00 0.00 0.00 66 1011.8
20260504032559 53 212 2.0 4.0 0.00 0.00 0.00 68 1011.7
20260504032102 53 209 2.0 3.0 0.00 0.00 0.00 67 1011.7
20260504031621 54 196 2.0 4.0 0.00 0.00 0.00 66 1011.7
20260504031100 54 207 1.0 4.0 0.00 0.00 0.00 66 1011.7
20260504030558 55 190 2.0 4.0 0.00 0.00 0.00 65 1011.7
20260504030058 55 225 2.0 4.0 0.00 0.00 0.00 65 1011.8
20260504030002 55 227 2.0 3.0 0.00 0.00 0.00 65 1011.8
20260504025600 54 202 1.0 4.0 0.00 0.00 0.00 66 1011.8
20260504025100 54 197 2.0 4.0 0.00 0.00 0.00 67 1011.7
20260504025002 54 196 2.0 4.0 0.00 0.00 0.00 67 1011.8
20260504024604 53 195 2.0 4.0 0.00 0.00 0.00 68 1011.8
20260504024059 53 207 2.0 4.0 0.00 0.00 0.00 69 1011.8
20260504023559 52 195 1.0 4.0 0.00 0.00 0.00 71 1011.8
20260504023101 51 199 0.0 2.0 0.00 0.00 0.00 73 1011.9
20260504022601 52 151 0.0 3.0 0.00 0.00 0.00 72 1011.8
20260504022100 52 165 0.0 3.0 0.00 0.00 0.00 72 1011.9
20260504021600 53 184 0.0 2.0 0.00 0.00 0.00 71 1011.8
20260504021001 53 183 0.0 2.0 0.00 0.00 0.00 71 1011.9
20260504020601 53 148 0.0 3.0 0.00 0.00 0.00 72 1011.9
20260504020112 52 190 1.0 3.0 0.00 0.00 0.00 74 1011.8
20260504020001 51 186 1.0 3.0 0.00 0.00 0.00 75 1011.8
20260504015601 51 137 0.0 0.0 0.00 0.00 0.00 74 1011.8
20260504015101 51 156 0.0 0.0 0.00 0.00 0.00 73 1011.8
20260504014558 51 103 0.0 0.0 0.00 0.00 0.00 73 1011.8
20260504014058 52 142 0.0 0.0 0.00 0.00 0.00 71 1011.9
20260504013558 53 147 0.0 1.0 0.00 0.00 0.00 68 1011.9
20260504013100 54 147 0.0 1.0 0.00 0.00 0.00 64 1011.9
20260504012601 56 207 0.0 3.0 0.00 0.00 0.00 61 1011.9
20260504012059 56 196 0.0 3.0 0.00 0.00 0.00 61 1011.9
20260504011600 56 202 0.0 3.0 0.00 0.00 0.00 61 1011.9
20260504011059 56 212 0.0 3.0 0.00 0.00 0.00 62 1011.9
20260504010558 55 209 1.0 3.0 0.00 0.00 0.00 63 1011.9
20260504010059 55 212 1.0 4.0 0.00 0.00 0.00 63 1011.9
20260504005559 55 207 2.0 4.0 0.00 0.00 0.00 63 1011.9
20260504005059 54 197 2.0 4.0 0.00 0.00 0.00 65 1011.9
20260504004559 53 208 2.0 3.0 0.00 0.00 0.00 67 1011.9
20260504004059 52 198 1.0 3.0 0.00 0.00 0.00 68 1011.9
20260504003558 52 204 0.0 3.0 0.00 0.00 0.00 69 1011.8
20260504003059 52 198 1.0 3.0 0.00 0.00 0.00 69 1011.8
20260504002558 50 202 1.0 3.0 0.00 0.00 0.00 72 1011.8
20260504002058 50 195 0.0 2.0 0.00 0.00 0.00 73 1011.9
20260504001602 50 212 0.0 1.0 0.00 0.00 0.00 72 1011.9
20260504001100 50 130 0.0 1.0 0.00 0.00 0.00 72 1011.9
20260504000600 50 154 0.0 1.0 0.00 0.00 0.00 73 1011.9
20260503235559 51 151 0.0 1.0 0.00 0.00 0.00 72 1011.9
20260503235102 51 167 0.0 1.0 0.00 0.00 0.00 73 1011.9
20260503234627 50 220 0.0 1.0 0.00 0.00 0.00 73 1011.9
20260503234103 50 222 0.0 2.0 0.00 0.00 0.00 73 1011.9
20260503233559 50 186 0.0 2.0 0.00 0.00 0.00 72 1012.0
20260503233058 51 168 0.0 2.0 0.00 0.00 0.00 72 1012.0
20260503232558 51 116 0.0 1.0 0.00 0.00 0.00 72 1012.0
20260503232100 51 119 0.0 2.0 0.00 0.00 0.00 71 1012.1
20260503231559 51 111 0.0 2.0 0.00 0.00 0.00 72 1012.0
20260503231058 51 117 0.0 1.0 0.00 0.00 0.00 72 1012.1
20260503230602 51 117 0.0 2.0 0.00 0.00 0.00 70 1012.1
20260503230059 51 146 0.0 2.0 0.00 0.00 0.00 70 1012.1
20260503225559 52 140 0.0 1.0 0.00 0.00 0.00 69 1012.1
20260503225100 52 134 0.0 0.0 0.00 0.00 0.00 69 1012.1
20260503224600 52 134 0.0 1.0 0.00 0.00 0.00 69 1012.1
20260503224102 52 126 0.0 0.0 0.00 0.00 0.00 68 1012.2
20260503223600 52 200 0.0 1.0 0.00 0.00 0.00 68 1012.2
20260503223059 52 165 0.0 1.0 0.00 0.00 0.00 68 1012.2
20260503222559 52 163 0.0 1.0 0.00 0.00 0.00 67 1012.3
20260503222100 53 140 0.0 1.0 0.00 0.00 0.00 67 1012.3
20260503221606 53 142 0.0 1.0 0.00 0.00 0.00 68 1012.3
20260503221100 53 132 0.0 0.0 0.00 0.00 0.00 68 1012.3
20260503220600 53 140 0.0 0.0 0.00 0.00 0.00 68 1012.4
20260503220059 53 140 0.0 0.0 0.00 0.00 0.00 67 1012.4
20260503220005 53 140 0.0 0.0 0.00 0.00 0.00 67 1012.4
20260503215600 53 140 0.0 0.0 0.00 0.00 0.00 67 1012.5
20260503215100 54 140 0.0 1.0 0.00 0.00 0.00 67 1012.5
20260503214505 54 84 0.0 1.0 0.00 0.00 0.00 66 1012.6
20260503214101 55 317 0.0 0.0 0.00 0.00 0.00 65 1012.6
20260503213600 55 269 0.0 0.0 0.00 0.00 0.00 65 1012.6
20260503213500 55 269 0.0 0.0 0.00 0.00 0.00 65 1012.6
20260503213100 55 269 0.0 1.0 0.00 0.00 0.00 65 1012.5
20260503213002 55 269 0.0 1.0 0.00 0.00 0.00 65 1012.5
20260503212601 54 205 0.0 1.0 0.00 0.00 0.00 65 1012.6
20260503212002 55 163 0.0 1.0 0.00 0.00 0.00 65 1012.6
20260503211501 55 68 0.0 1.0 0.00 0.00 0.00 64 1012.6
20260503211001 56 71 0.0 1.0 0.00 0.00 0.00 63 1012.7
20260503210501 56 71 0.0 0.0 0.00 0.00 0.00 63 1012.6
20260503210104 56 74 0.0 0.0 0.00 0.00 0.00 62 1012.7
20260503210002 56 86 0.0 0.0 0.00 0.00 0.00 62 1012.6
20260503205600 57 117 0.0 0.0 0.00 0.00 0.00 61 1012.7
20260503205502 57 117 0.0 0.0 0.00 0.00 0.00 61 1012.6
20260503205101 56 132 0.0 1.0 0.00 0.00 0.00 61 1012.6
20260503204601 57 137 0.0 1.0 0.00 0.00 0.00 60 1012.6
20260503204500 57 137 0.0 1.0 0.00 0.00 0.00 60 1012.7
20260503204100 57 144 0.0 0.0 0.00 0.00 0.00 59 1012.7
20260503203600 57 227 0.0 0.0 0.00 0.00 0.00 59 1012.6
20260503203003 57 184 0.0 1.0 0.00 0.00 0.00 58 1012.7
20260503202501 58 197 0.0 0.0 0.00 0.00 0.00 58 1012.6
20260503202101 58 144 0.0 0.0 0.00 0.00 0.00 57 1012.6
20260503202000 58 138 0.0 0.0 0.00 0.00 0.00 57 1012.7
20260503201502 59 182 0.0 0.0 0.00 0.00 0.00 57 1012.6
20260503201104 59 232 0.0 1.0 0.00 0.00 0.00 56 1012.6
20260503200601 59 186 0.0 1.0 0.00 0.00 0.00 56 1012.7
20260503200003 60 188 0.0 1.0 0.00 0.00 0.00 55 1012.7
20260503195605 60 160 0.0 1.0 0.00 0.00 0.00 55 1012.7
20260503195502 60 179 0.0 1.0 0.00 0.00 0.00 55 1012.7
20260503195100 60 173 0.0 1.0 0.00 0.00 0.00 54 1012.7
20260503194501 60 214 0.0 0.0 0.00 0.00 0.00 53 1012.8
20260503194101 61 223 0.0 0.0 0.00 0.00 0.00 53 1012.8
20260503193600 61 148 0.0 0.0 0.00 0.00 0.00 52 1012.8
20260503193500 61 148 0.0 0.0 0.00 0.00 0.00 52 1012.8
20260503193102 62 136 0.0 0.0 0.00 0.00 0.00 51 1012.8
20260503192502 62 223 0.0 1.0 0.00 0.00 0.00 50 1012.8
20260503192002 63 189 0.0 1.0 0.00 0.00 0.00 50 1012.7
20260503191603 63 211 0.0 0.0 0.00 0.00 0.00 49 1012.8
20260503191501 63 200 0.0 0.0 0.00 0.00 0.00 49 1012.8
20260503191001 64 180 0.0 0.0 0.00 0.00 0.00 48 1012.8
20260503190601 64 223 0.0 0.0 0.00 0.00 0.00 48 1012.7
20260503190002 64 213 0.0 0.0 0.00 0.00 0.00 46 1012.7
20260503185603 65 211 0.0 0.0 0.00 0.00 0.00 47 1012.7
20260503185103 66 328 0.0 0.0 0.00 0.00 0.00 44 1012.7
20260503185001 66 328 0.0 0.0 0.00 0.00 0.00 43 1012.7
20260503184600 66 328 0.0 0.0 0.00 0.00 0.00 44 1012.6
20260503184502 66 210 0.0 0.0 0.00 0.00 0.00 44 1012.6
20260503184002 67 129 0.0 0.0 0.00 0.00 0.00 43 1012.5
20260503183559 67 129 0.0 0.0 0.00 0.00 0.00 42 1012.5
20260503183006 69 193 0.0 0.0 0.00 0.00 0.00 40 1012.4
20260503182600 70 193 0.0 0.0 0.00 0.00 0.00 40 1012.4
20260503182100 71 193 0.0 0.0 0.00 0.00 0.00 36 1012.4
20260503181600 72 193 0.0 3.0 0.00 0.00 0.00 35 1012.4
20260503181502 72 193 0.0 3.0 0.00 0.00 0.00 36 1012.3
20260503181100 72 167 0.0 3.0 0.00 0.00 0.00 35 1012.3
20260503180500 73 232 0.0 3.0 0.00 0.00 0.00 34 1012.3
20260503180000 74 211 0.0 3.0 0.00 0.00 0.00 32 1012.3
20260503175501 75 228 0.0 5.0 0.00 0.00 0.00 31 1012.3
20260503175100 77 211 1.0 5.0 0.00 0.00 0.00 29 1012.2
20260503175001 77 196 1.0 5.0 0.00 0.00 0.00 29 1012.2
20260503174602 77 197 2.0 6.0 0.00 0.00 0.00 28 1012.2
20260503174502 77 182 2.0 6.0 0.00 0.00 0.00 28 1012.2
20260503174100 77 205 3.0 6.0 0.00 0.00 0.00 28 1012.2
20260503174002 77 200 3.0 7.0 0.00 0.00 0.00 28 1012.2
20260503173600 78 221 2.0 8.0 0.00 0.00 0.00 28 1012.2
20260503173001 78 179 3.0 8.0 0.00 0.00 0.00 27 1012.2
20260503172502 79 175 2.0 7.0 0.00 0.00 0.00 27 1012.2
20260503172100 79 205 3.0 10.0 0.00 0.00 0.00 27 1012.1
20260503172002 79 184 3.0 10.0 0.00 0.00 0.00 27 1012.1
20260503171600 79 184 3.0 10.0 0.00 0.00 0.00 27 1012.1
20260503171100 79 191 3.0 9.0 0.00 0.00 0.00 26 1012.2
20260503170601 80 198 5.0 9.0 0.00 0.00 0.00 26 1012.2
20260503151000 83 197 7.0 17.0 0.00 0.00 0.00 21 1012.7
20260503150501 83 200 5.0 19.0 0.00 0.00 0.00 21 1012.6
20260503140110 84 223 7.0 14.0 0.00 0.00 0.00 22 1013.3
20260503131059 83 237 5.0 15.0 0.00 0.00 0.00 22 1013.8
20260503130603 84 225 7.0 15.0 0.00 0.00 0.00 23 1014.0
20260503110600 81 213 5.0 15.0 0.00 0.00 0.00 25 1015.1
20260503110111 81 221 6.0 15.0 0.00 0.00 0.00 24 1015.2
20260503090104 77 198 5.0 10.0 0.00 0.00 0.00 30 1016.3
20260503081600 74 161 4.0 10.0 0.00 0.00 0.00 34 1016.7
20260503081059 73 190 4.0 10.0 0.00 0.00 0.00 35 1016.7
20260503080600 74 197 4.0 10.0 0.00 0.00 0.00 35 1016.8
20260503072601 69 156 2.0 7.0 0.00 0.00 0.00 42 1017.0
20260503072102 69 200 0.0 4.0 0.00 0.00 0.00 43 1017.1
20260503071615 68 154 2.0 8.0 0.00 0.00 0.00 44 1017.1
20260503071059 67 132 3.0 8.0 0.00 0.00 0.00 45 1017.1
20260503070603 67 197 4.0 8.0 0.00 0.00 0.00 45 1017.1
20260503060135 60 156 3.0 7.0 0.00 0.00 0.00 57 1017.3
20260503055058 59 179 3.0 9.0 0.00 0.00 0.00 59 1017.3
20260503054603 58 183 2.0 6.0 0.00 0.00 0.00 60 1017.3
20260503054059 58 213 3.0 7.0 0.00 0.00 0.00 61 1017.3
20260503053559 57 174 3.0 7.0 0.00 0.00 0.00 62 1017.4
20260503053100 57 175 3.0 7.0 0.00 0.00 0.00 64 1017.4
20260503052600 56 219 3.0 5.0 0.00 0.00 0.00 66 1017.5
20260503052059 55 204 2.0 4.0 0.00 0.00 0.00 68 1017.6
20260503051600 54 198 2.0 4.0 0.00 0.00 0.00 71 1017.6
20260503051104 53 190 1.0 4.0 0.00 0.00 0.00 73 1017.5